Regional Weather Roundup
Issued by NWS

Home | Current Version | Previous Version | Graphics & Text | Print | Product List | Glossary Off
Versions: 1 2 3 4 5 6 7 8 9 10 11 12 13 14 15 16 17 18 19 20 21 22 23 24 25 26 27 28 29 30 31 32 33 34 35 36 37 38 39 40 41 42 43 44 45 46 47 48 49 50

000
ASUS43 KMKX 251559
RWRWI

WISCONSIN REGIONAL WEATHER ROUNDUP
NATIONAL WEATHER SERVICE MILWAUKEE/SULLIVAN WI
1000 AM CST SUN JAN 25 2015

NOTE: "FAIR" INDICATES FEW OR NO CLOUDS BELOW 12,000 FEET WITH NO
SIGNIFICANT WEATHER AND/OR OBSTRUCTIONS TO VISIBILITY.

WIZ001-002-006>008-014>016-023>028-251700-
NORTHWEST WISCONSIN

CITY           SKY/WX    TMP DP  RH WIND       PRES   REMARKS
SUPERIOR ARPT  CLOUDY    22  13  66 E9G16     30.05R WCI  12
ASHLAND        CLOUDY    18   9  68 E8        30.06R WCI   8
HAYWARD        PTSUNNY   19   9  65 E7        30.00R WCI  10
SIREN          CLOUDY    21  12  69 NE9G16    30.01R WCI  10
CUMBERLAND     MOSUNNY   16   9  73 NE10      29.99R WCI   3
RICE LAKE      MOSUNNY   15   8  73 N8        30.01R WCI   5
CHETEK         MOSUNNY   16   9  72 NE5       30.00R WCI   9
LADYSMITH      CLOUDY    17  10  74 NE8       30.00R WCI   6
EAU CLAIRE     NOT AVBL
MENOMONIE      FAIR      20  11  67 NE9       29.98R WCI  10
NEW RICHMOND   CLOUDY    18  10  69 NE10      29.99R WCI   6
OSCEOLA        CLOUDY    19  11  69 NE14      30.04R WCI   6
$$

WIZ003>005-009-010-017-018-251700-
NORTH CENTRAL WISCONSIN

CITY           SKY/WX    TMP DP  RH WIND       PRES   REMARKS
MANITOWISH WTR FLURRIES  12   5  74 E9        29.97R WCI  -1
ARBOR VITAE    CLOUDY    14   7  73 CALM      29.96R
WOODRUFF       CLOUDY    14   7  73 CALM      29.96R
RHINELANDER    PTSUNNY   12   4  70 E13       29.97R WCI  -3
EAGLE RIVER    CLOUDY    12   4  70 NE7G18    29.96R WCI   2
LAND O LAKES   FLURRIES  13   6  73 E3        29.98R
PHILLIPS       FLURRIES  14   8  76 NE7       29.96R WCI   4
TOMAHAWK       CLOUDY    14   7  72 NE6       29.97R WCI   5
MEDFORD        FLURRIES  16   9  73 NE9       29.95R WCI   4
MERRILL        CLOUDY    17   8  66 E10G16    29.97R WCI   5
$$

WIZ029-030-035-036-043>047-251700-
CENTRAL WISCONSIN

CITY           SKY/WX    TMP DP  RH WIND       PRES   REMARKS
WAUSAU         CLOUDY    16   8  71 E9        29.97R WCI   4
MOSINEE        FLURRIES  18  12  79 E6        29.98R WCI   9
MARSHFIELD     LGT SNOW  19  11  70 E9        29.96R WCI   8
STEVENS POINT  CLOUDY    16   8  71 E13G20    29.98R WCI   2
WAUPACA        PTSUNNY   21  11  63 NE12G17   30.00R WCI   9
WAUTOMA        NOT AVBL
WISC RAPIDS    CLOUDY    19   9  65 E9G20     29.99R WCI   8
CAMP DOUGLAS   CLOUDY    23  18  80 NE10      29.95R WCI  12
$$

WIZ011>013-019>022-031-037>040-048>050-251700-
NORTHEAST WISCONSIN

CITY           SKY/WX    TMP DP  RH WIND       PRES   REMARKS
ANTIGO         CLOUDY    14   8  76 NE13      29.96R WCI   0
SHAWANO        CLOUDY    19   9  65 NE8G16    30.02R WCI   9
OCONTO         CLOUDY    18   8  66 MISG      30.03R
STURGEON BAY   CLOUDY    16   9  73 N13       30.03R WCI   2
GREEN BAY      LGT SNOW  18  11  74 NE18G28   30.02R WCI   2
MANITOWOC      NOT AVBL
APPLETON       CLOUDY    18   9  68 NE15G22   29.98R WCI   3
CLINTONVILLE   FLURRIES  19  12  73 NE10G16   30.01R WCI   8
OSHKOSH        CLOUDY    18  11  74 NE20G28   29.97R WCI   2
$$

WIZ032>034-041-042-053>061-251700-
SOUTHWEST WISCONSIN

CITY           SKY/WX    TMP DP  RH WIND       PRES   REMARKS
LA CROSSE      CLOUDY    27  16  63 VRB6      29.95R WCI  20
SPARTA         CLOUDY    24  15  69 NE13      29.95R WCI  12
VIROQUA        CLOUDY    23  17  78 NE14      29.90R WCI  11
BOSCOBEL       CLOUDY    26  17  68 NE9G17    29.92R WCI  17
PRAIRIE DU CHI CLOUDY    27  18  70 NE7       29.90R WCI  19
PLATTEVILLE    PTSUNNY   25  22  87 N17G24    29.83R WCI  12
$$

WIZ056-057-062-063-064-067-068-251700-
SOUTH CENTRAL WISCONSIN

CITY           SKY/WX    TMP DP  RH WIND       PRES   REMARKS
REEDSBURG      CLOUDY    22  15  76 NE13      29.92R WCI   9
BARABOO/DELLS  CLOUDY    21  15  76 NE17      29.92R WCI   7
LONE ROCK      NOT AVBL
MINERAL POINT  FLURRIES  27  21  80 NE16G24   29.84R WCI  14
MADISON        CLOUDY    23  17  78 NE20      29.90R WCI   8
MIDDLETON      CLOUDY    24  18  78 NE16      29.89R WCI  11
WATERTOWN      CLOUDY    25  19  80 NE14G26   29.88R WCI  13
MONROE         FLURRIES  27  25  93 NE21      29.82R WCI  13
JANESVILLE     LGT SNOW  28  25  86 NE14G23   29.84R WCI  17
$$

WIZ051-052-058>065-066-070>072-251700-
SOUTHEAST WISCONSIN

CITY           SKY/WX    TMP DP  RH WIND       PRES   REMARKS
MILWAUKEE      CLOUDY    25  15  66 NE18G32   29.89R WCI  11
WAUKESHA       CLOUDY    23  16  74 NE17G29   29.89R WCI   9
MILWAUKEE/TIMM CLOUDY    25  16  68 NE18G26   29.90R WCI  11
RACINE         CLOUDY    27  19  72 NE17G28   29.89R WCI  14
BURLINGTON     CLOUDY    25  17  71 NE22G28   29.85R WCI  10
KENOSHA        FLURRIES  28  21  75 NE18G28   29.85R WCI  15
FOND DU LAC    FLURRIES  21  14  74 NE15      29.96R WCI   8
SHEBOYGAN      PTSUNNY   24  14  65 NE24G35   29.95R WCI   8
WEST BEND      CLOUDY    23  18  80 NE22G30   29.90R WCI   8
JUNEAU         CLOUDY    23  16  75 NE18G24   29.91R WCI   9
$$

LSZ147-162-251700-
LAKE SUPERIOR

STATION/POSITION TIME  TEMP    WIND        PRES    WAVE
                       AIR SEA DIR/SP/G            HT/PER
                 (UTC) (F)     (DEG/KT/KT) (MB)    (FT/S)
DEVILS ISLAND    1500   18      70/ 15/ 19 1019.3R
PORT WING        1540   22      50/ 14/ 18 1017.9R
SAXON HARBOR     1500   17     100/  4/ 12 1017.3R
$$

LMZ867-665-643>646-251700-
LAKE MICHIGAN

STATION/POSITION TIME  TEMP    WIND        PRES    WAVE
                       AIR SEA DIR/SP/G            HT/PER
                 (UTC) (F)     (DEG/KT/KT) (MB)    (FT/S)
NORTHPORT PIER   1506   15      10/ 14/ 22 1016.9R
SISTER BAY       1443   16      10/ 16/ 23   N/A
KEWAUNEE LAKESHO 1500   22      60/ 19/ 26 1014.1R
SHEBOYGAN LAKESH 1500   23      50/ 26/ 29 1014.6R
PORT WASHINGTON  1500   26      60/ 20     1013.5
MILWAUKEE LAKESH 1500   26      40/ 24/ 28   N/A
KENOSHA   LAKESH 1500   29      30/ 21/ 27 1010.2R
$$

TC  - TEMPERATURE IN CELSIUS
VSB - VISIBILITY IN STATUTE MILES
WCI - WIND CHILL INDEX
HX  - HEAT INDEX




USA.gov is the U.S. government's official web portal to all federal, state and local government web resources and services.